Location: *
(48.8479°N, 19.0880°E)
Time: 13:15:21
(UTC+00:00)

Daily predictions for brighter satellites

Satellite Brightness Start Highest point End
(mag) Time Altitude Azimuth Time Altitude Azimuth Time Altitude Azimuth
Timation 1 Rocket 4.4 19:11:57 10° NNW 19:18:00 80° ENE 19:23:59 10° SSE
Cosmos 1151 Rocket 3.4 19:14:36 10° N 19:18:54 49° ENE 19:23:09 10° SSE
Cosmos 1238 Rocket 4.3 19:13:23 10° S 19:19:52 60° E 19:26:17 10° NNE
ATLAS CENTAUR R/B 4.2 19:17:08 10° NNW 19:19:58 15° NNE 19:22:45 10° NE
Cosmos 1461 4.0 19:17:12 10° NW 19:20:51 35° WSW 19:24:31 10° S
MetOp-A 4.5 19:17:14 10° S 19:22:35 69° WSW 19:27:57 10° NNW
Cosmos 2360 Rocket 3.1 19:19:00 10° SSE 19:23:44 28° ESE 19:28:28 10° NE
Cosmos 1072 Rocket 4.5 19:19:16 10° S 19:25:20 68° E 19:31:25 10° NNE
Lacrosse 5 3.6 19:22:11 10° WNW 19:26:48 33° N 19:31:24 10° ENE
Cosmos 1980 Rocket 3.4 19:22:58 10° SW 19:28:23 47° NW 19:33:49 10° NNE
Cosmos 1328 Rocket 3.6 19:25:01 10° N 19:29:26 72° E 19:33:45 10° SSE
ISS -2.9 19:29:27 10° SSW 19:32:21 28° SE 19:35:16 10° E
H-2A R/B 3.5 19:30:01 10° SSW 19:35:05 39° W 19:40:06 10° NNW
Aureole 1 Rocket 3.9 19:32:46 10° SSW 19:37:45 84° WNW 19:44:27 10° NNE
Nadezhda 4 Rocket 4.1 19:34:08 10° N 19:40:25 64° ENE 19:46:37 10° SSE
Cosmos 1408 3.5 19:37:30 10° SSE 19:40:49 31° E 19:44:09 10° NNE
Cosmos 1606 4.2 19:38:19 10° NNE 19:41:24 23° ENE 19:44:11 11° ESE
Cosmos 1500 Rocket 4.3 19:38:56 10° SSE 19:43:00 36° E 19:47:07 10° NNE
CZ-2C R/B 2.8 19:38:21 10° NNE 19:43:29 51° E 19:48:30 10° S
Cosmos 1340 Rocket 4.4 19:42:52 10° NNW 19:46:37 35° W 19:50:21 10° SSW
SWARM A 4.3 19:43:26 10° SSE 19:46:43 59° E 19:50:01 10° N
Cosmos 2034 Rocket 4.0 19:41:59 10° S 19:48:08 68° E 19:54:25 10° NNE
Cosmos 304 Rocket 4.5 19:44:17 10° NNW 19:48:57 51° WSW 19:53:37 10° S
Cosmos 1933 3.9 19:45:05 10° N 19:49:00 43° ENE 19:52:18 13° SE
USA 229 DEB 4.2 19:44:08 10° S 19:49:56 34° ESE 19:55:57 10° NE
USA 229 4.3 19:44:16 10° S 19:50:03 34° ESE 19:56:03 10° NE
Cosmos 407 Rocket 4.2 19:48:00 10° SSE 19:52:47 35° ESE 19:57:38 10° NE
Terra 2.6 19:48:52 12° SE 19:52:51 38° ENE 19:57:15 10° N
SL-23 DEB 4.2 19:47:57 10° WNW 19:52:56 56° SSW 19:55:41 15° SE
DMSP B5D2-2 4.3 19:48:26 10° NNE 19:53:40 75° WNW 19:58:51 10° SSW
Cosmos 2322 Rocket 2.2 19:48:07 10° SSW 19:53:50 89° SE 19:59:35 10° NNE
Iridium 4 Rocket 4.1 19:48:14 10° N 19:54:09 74° W 19:59:56 10° S
Thor Agena Rocket 3.9 19:49:27 10° NNE 19:54:19 45° E 19:59:09 10° S
Cosmos 2219 Rocket 3.7 19:51:31 12° SE 19:54:21 17° E 19:57:54 10° ENE
Cosmos 2151 3.6 19:51:56 10° SSW 19:56:10 60° WNW 20:00:27 10° N
Cosmos 1092 Rocket 4.2 19:52:22 10° N 19:58:35 58° ENE 20:04:00 13° SSE
Cosmos 2251 Rocket 4.3 19:53:50 10° SW 19:58:58 55° WNW 20:04:07 10° NNE
Cosmos 2278 Rocket 3.9 19:54:45 10° N 19:59:13 23° NE 20:03:39 10° E
Cosmos 44 Rocket 3.3 19:54:11 10° SSW 19:59:17 73° SE 20:04:19 10° NE
SL-16 R/B 2.4 19:54:06 10° SSW 19:59:46 76° WNW 20:05:29 10° NNE
Cosmos 2333 Rocket 3.6 19:57:43 13° SE 20:00:36 19° E 20:04:26 10° ENE
ADEOS Rocket 3.4 19:55:01 10° N 20:00:37 61° WNW 20:06:00 10° SSW
ERS-1 Rocket 3.0 19:57:30 11° SSE 20:02:18 85° ENE 20:07:23 10° NNW
Gbstr 26 Del rocket 2.7 19:59:23 10° WSW 20:03:22 86° NNW 20:07:07 10° ENE
Cosmos 1825 2.6 20:00:42 14° SSE 20:03:43 43° E 20:07:19 10° NNE
Cosmos 614 Rocket 4.5 19:59:50 10° S 20:04:29 38° ESE 20:09:10 10° NE
Cosmos 1607 4.3 19:58:55 10° NW 20:05:00 57° NE 20:10:25 13° ESE
Cosmos 1743 Rocket 3.5 20:05:46 10° S 20:10:07 76° E 20:14:29 10° NNE
IGS 5A 3.4 20:07:39 14° SSE 20:11:11 89° ENE 20:15:23 10° NNW
Cosmos 2322 4.1 20:06:50 10° S 20:12:06 41° ESE 20:17:24 10° NE
EO 1 Del DPAF 3.3 20:09:57 10° NNE 20:13:46 78° WNW 20:17:33 10° SSW
Cosmos 1844 Rocket 2.8 20:08:05 10° NNW 20:13:48 75° ENE 20:18:14 17° SE
USA 215 3.8 20:08:45 10° NE 20:15:13 64° NNW 20:21:41 10° WSW
Cosmos 1515 Rocket 4.0 20:12:49 10° NNW 20:17:08 58° W 20:21:13 11° S
Cosmos 2263 Rocket 3.9 20:13:19 10° NW 20:18:00 27° WSW 20:22:40 10° SSW
Tiangong 2 3.2 20:17:04 10° SW 20:18:42 14° SSW 20:19:09 13° SSW
Cosmos 1634 Rocket 4.2 20:17:40 14° SSE 20:22:58 55° E 20:29:03 10° NNE
SPOT 1/Viking Rocket 3.8 20:20:29 13° S 20:25:08 65° WSW 20:30:19 10° NNW
USA 245 4.4 20:26:51 10° SW 20:28:25 17° W 20:30:02 10° NW
Cosmos 2026 Rocket 4.0 20:25:52 10° N 20:31:57 71° E 20:36:27 19° SSE
Lacrosse 5 rocket 3.3 20:28:46 10° NW 20:32:57 32° N 20:37:04 10° ENE
Cosmos 2237 4.2 20:28:38 10° SSW 20:34:18 81° ESE 20:40:02 10° NNE
Cosmos 1805 Rocket 3.8 20:32:33 21° SSE 20:35:14 52° E 20:39:28 10° NNE
Landsat 4 3.6 20:35:53 10° NNE 20:39:36 67° ESE 20:41:49 22° S
SPOT 5 3.3 20:35:43 16° S 20:39:47 60° WSW 20:44:36 10° NNW
Cosmos 1818 3.6 20:34:50 10° NW 20:40:21 78° NE 20:44:00 22° SE
Cosmos 2228 Rocket 4.0 20:38:13 10° NNW 20:42:35 46° W 20:46:20 14° SSW
Cosmos 1356 Rocket 4.1 20:38:33 10° NNW 20:42:44 51° W 20:45:51 17° SSW
Meteor 2-11 Rocket 4.5 20:38:32 10° SSW 20:44:36 82° W 20:50:45 10° N
SL-8 R/B 3.9 20:40:55 10° W 20:45:34 53° SSW 20:48:09 25° SE
Cosmos 1782 2.9 20:44:17 10° N 20:48:18 62° ENE 20:50:12 29° SSE
Mayak 0.0 20:46:12 10° NE 20:49:51 27° E 20:51:05 24° ESE
SL-4 R/B 2.5 20:45:42 10° SW 20:50:22 49° SSE 20:54:57 10° ENE
USA 267 4.3 20:47:06 16° S 20:51:21 31° SW 20:57:03 10° WNW
CARTOSAT-1 4.4 20:49:10 17° SSW 20:52:13 45° W 20:56:23 10° NNW
COSMOS 2428 3.0 20:48:54 20° S 20:52:41 49° ESE 20:58:11 10° NE
DELTA 2 R/B (1) 4.3 20:48:18 10° SW 20:53:06 30° S 20:55:04 24° SE
Cosmos 1844 3.8 20:47:58 10° NNW 20:53:34 72° WSW 20:57:03 24° SSE
Cosmos 1666 Rocket 4.0 20:53:38 27° SSE 20:55:41 48° E 21:00:00 10° NNE
Cosmos 1633 Rocket 3.6 20:56:21 28° SE 20:58:01 41° E 21:02:07 10° NNE
ALOS 2 4.4 20:55:52 14° ESE 20:58:15 22° ENE 21:01:36 10° NNE
ATLAS CENTAUR R/B 2.8 20:55:46 10° NNW 21:00:17 38° NE 21:03:34 16° ESE
Meteor 2-6 Rocket 4.3 20:56:29 10° N 21:01:53 64° ENE 21:04:57 26° SSE
NOSS 3-1 (C) 3.3 20:57:00 10° SSW 21:02:34 73° SE 21:09:04 10° NE
Helios 1B rocket 4.2 20:59:56 10° NE 21:02:47 18° E 21:03:24 17° ESE
ASTEX 1 3.4 20:57:51 10° N 21:02:52 83° E 21:05:57 24° S
Cosmos 1867 4.4 21:04:17 26° SE 21:05:52 31° ESE 21:10:38 10° NE
GP-B 4.4 21:02:32 10° NNE 21:06:18 26° E 21:07:47 22° ESE
Cosmos 1023 Rocket 4.5 21:02:27 13° SSW 21:07:01 87° WNW 21:12:17 10° NNE
Cosmos 2360 Rocket 2.9 21:01:54 10° SW 21:07:26 54° NW 21:12:59 10° NNE
ISS -3.7 21:05:30 10° WSW 21:08:51 75° NNW 21:12:11 10° ENE
Cosmos 676 Rocket 3.9 21:05:24 17° SSW 21:09:26 83° ESE 21:14:43 10° NNE
Cosmos 2237 Rocket 3.2 21:07:54 24° SE 21:09:28 27° ESE 21:14:07 10° NE
Cosmos 1862 Rocket 4.1 21:05:27 10° N 21:09:37 44° ENE 21:11:20 29° SE
COSMOS 2455 4.4 21:08:52 16° ESE 21:09:45 16° ESE 21:13:19 10° ENE
Lacrosse 5 3.1 21:05:58 10° NW 21:10:45 40° NNE 21:15:32 10° E
SL-19 R/B 3.6 21:10:27 10° NNE 21:13:46 76° ESE 21:14:24 52° S
Cosmos 1470 Rocket 4.4 21:14:14 29° SE 21:15:29 35° E 21:19:29 10° NNE
Sich 1 3.0 21:14:33 27° SSW 21:16:50 83° WNW 21:21:08 10° N
Cosmos 1606 4.2 21:13:50 10° NNW 21:17:09 29° W 21:19:13 18° SW
Cosmos 2084 Rocket 3.9 21:13:47 10° NW 21:18:00 48° SW 21:19:28 33° S
MOS 1 Rocket 3.6 21:17:21 10° N 21:21:45 61° WNW 21:25:05 18° SSW
Cosmos 2266 Rocket 4.3 21:15:57 10° N 21:22:17 59° ENE 21:25:42 27° SSE
Cosmos 1954 Rocket 4.0 21:20:01 17° SSW 21:24:01 82° WNW 21:29:20 10° NNE
Cosmos 1633 3.0 21:24:58 39° ESE 21:25:26 41° E 21:28:50 10° NNE
Cosmos 1850 Rocket 4.3 21:27:27 32° SSE 21:29:36 51° ESE 21:34:48 10° NNE
Terra 3.2 21:27:45 16° SW 21:30:40 30° W 21:34:51 10° NNW
Cosmos 1140 Rocket 4.0 21:27:46 10° SW 21:32:47 56° WNW 21:37:56 10° NNE
Meteor 1-27 Rocket 4.0 21:28:10 10° N 21:34:02 67° ENE 21:36:59 30° SSE
Cosmos 2279 Rocket 4.1 21:31:09 21° SSW 21:35:26 74° W 21:41:40 10° N
Cosmos 2219 Rocket 2.2 21:33:10 18° SSW 21:37:33 85° WNW 21:43:16 10° NNE
USA 229 DEB 4.1 21:33:53 10° SW 21:40:29 65° NW 21:47:26 10° NE
USA 229 4.1 21:33:59 10° SW 21:40:35 66° NW 21:47:33 10° NE
BREEZE-M DEB (TANK) 2.5 21:40:14 10° W 21:42:53 87° N 21:50:33 10° E
Spot 4 3.9 21:41:09 35° S 21:43:07 70° WSW 21:47:54 10° NNW
NOSS 3-1 (A) 3.3 21:38:17 12° SW 21:43:29 87° SE 21:50:05 10° NE
ARGOS Delta rocket 3.6 21:42:24 40° SSE 21:43:58 78° ENE 21:48:33 10° N
Cosmos 2278 Rocket 2.2 21:38:19 10° NNW 21:44:01 84° WSW 21:46:37 34° SSE
Cosmos 2333 Rocket 2.3 21:39:39 17° SSW 21:44:11 79° WNW 21:49:55 10° NNE
BREEZE-M DEB (TANK) 1.9 21:42:20 10° W 21:46:42 17° E 21:47:49 10° E
ATLAS 5 CENTAUR R/B 3.8 21:40:58 10° NNW 21:45:49 31° NNE 21:51:17 10° E
Gbstr 26 Del rocket 3.3 21:46:40 10° WNW 21:50:22 53° N 21:54:07 10° E
NOSS 2-3 (E) 3.7 21:53:10 37° SSW 21:54:52 66° SE 22:00:08 10° NE
Helios 1A 3.6 21:54:50 35° SSW 21:56:06 46° W 22:00:09 10° NNW
Cosmos 841 Rocket 3.9 21:52:12 10° NNW 21:57:16 55° ENE 21:59:39 30° SE
SeaSat 1 2.7 21:52:36 10° NE 21:57:24 49° ESE 21:58:44 39° SSE
NOSS 2-3 (D) 3.7 21:56:04 39° SSW 21:57:39 66° SE 22:02:54 10° NE
USA 215 4.4 21:51:35 10° ENE 21:57:42 44° N 22:03:49 10° WNW
Cosmos 1763 Rocket 3.4 21:59:33 10° NNW 22:04:46 83° WSW 22:06:44 40° SSE
Cosmos 468 Rocket 4.2 22:02:01 10° NNW 22:07:13 62° WSW 22:09:08 38° S
Meteor 1-29 3.1 22:05:11 10° NNE 22:08:35 54° E 22:08:38 54° ESE
Cosmos 2369 Rocket 4.2 22:05:08 10° N 22:09:38 23° NE 22:14:07 10° E
NOSS 0 Rocket 3.9 22:06:55 26° SSW 22:10:36 89° ESE 22:16:49 10° NNE
Lacrosse 5 rocket 1.7 22:08:09 10° NW 22:12:46 73° NNE 22:15:02 29° ESE
ATLAS 3B R/B 4.5 22:12:54 10° NW 22:18:36 29° NNE 22:24:21 10° E
Cosmos 2242 Rocket 4.1 22:16:47 10° NNW 22:21:10 50° W 22:22:30 37° SW
Cosmos 1703 Rocket 3.5 22:19:12 10° N 22:23:41 87° W 22:24:50 50° S
Cosmos 2208 Rocket 4.2 22:18:23 10° NNW 22:23:48 65° WSW 22:25:41 40° S
Mayak 0.2 22:21:39 10° N 22:25:28 33° WNW 22:27:40 20° WSW
ERS-2 2.0 22:28:07 64° SE 22:28:36 79° ENE 22:32:18 10° NNW
SL-4 R/B 2.5 22:25:15 10° W 22:30:05 72° NNW 22:34:43 10° ENE
Cosmos 1315 Rocket 2.8 22:27:10 10° N 22:31:07 76° ENE 22:31:48 58° SE
Cosmos 1812 3.3 22:27:32 10° NNW 22:31:13 43° W 22:31:48 40° WSW
Cosmos 1400 Rocket 3.6 22:30:16 10° NNW 22:34:12 42° W 22:34:59 37° SW
ALOS 2 3.1 22:33:16 40° SW 22:34:17 48° W 22:38:34 10° NNW
Cosmos 1933 Rocket 4.2 22:34:02 33° SW 22:35:35 48° WNW 22:39:52 10° N
SL-16 R/B 2.6 22:34:08 37° SSE 22:35:50 49° ESE 22:41:18 10° NE
Cosmos 2221 Rocket 4.1 22:31:23 10° N 22:35:50 53° ENE 22:37:13 38° SE
ATLAS 2AS CENTAUR R/B 4.4 22:33:30 18° SE 22:36:13 21° ESE 22:41:49 10° ENE
COSMOS 2428 4.1 22:31:55 10° WSW 22:37:08 35° NW 22:42:23 10° NNE
Helios 1B rocket 3.0 22:34:20 10° N 22:38:21 50° WNW 22:39:44 35° WSW
ATLAS CENTAUR R/B 2.2 22:34:55 10° NW 22:39:18 39° WSW 22:39:44 38° SW
Okean 1-7 3.0 22:35:57 10° NNW 22:40:13 73° W 22:41:09 52° SSW
NOSS 2-3 (C) 4.2 22:37:14 21° WSW 22:40:15 63° NW 22:45:45 10° NE
Lacrosse 4 Rocket 1.8 22:41:23 46° SE 22:41:56 49° ESE 22:46:15 10° NE
SL-24 R/B - RUBIN 2 4.5 22:37:47 10° NW 22:43:26 57° WSW 22:45:39 37° S
GP-B 4.2 22:39:37 10° NNW 22:43:41 35° W 22:45:15 27° WSW
SL-19 R/B 4.3 22:42:23 38° S 22:44:42 82° WSW 22:50:38 10° NNW
ISS -2.9 22:42:30 10° WNW 22:45:45 50° N 22:49:01 10° E
Cosmos 1980 4.1 22:42:14 23° SW 22:45:46 60° WNW 22:51:26 10° NNE
Cosmos 1867 4.2 22:44:53 16° WSW 22:49:13 56° NW 22:54:39 10° NNE
Cosmos 2237 Rocket 2.7 22:49:41 22° SW 22:53:10 56° WNW 22:58:44 10° NNE
Cosmos 1437 2.9 22:53:43 64° NW 22:53:43 64° NW 22:56:36 10° N
Cosmos 1814 Rocket 4.3 22:48:48 10° NNW 22:53:48 52° WSW 22:55:10 40° SSW
Lacrosse 5 1.7 22:49:02 10° NW 22:54:07 80° SW 22:56:25 33° SE
COSMOS 2455 2.8 22:51:59 34° SSW 22:54:47 83° ESE 23:00:52 10° NE
Cosmos 2285 Rocket 3.9 22:53:55 33° SSW 22:56:57 88° WNW 23:03:19 10° NNE
Cosmos 1869 Rocket 3.6 22:58:41 49° SSW 22:59:48 74° W 23:04:13 10° N
Meteor 1-19 Rocket 4.3 22:57:26 10° N 23:02:54 68° ENE 23:05:19 34° SSE
Meteor 1-14 Rocket 4.3 23:10:09 38° S 23:12:34 87° E 23:18:32 10° NNE
Cosmos 1602 3.7 23:13:11 60° SSE 23:13:48 77° E 23:17:43 10° NNE
CZ-4C R/B 3.5 23:13:30 46° SSE 23:14:46 83° ENE 23:19:14 10° NNW
Meteor 1-18 Rocket 4.3 23:12:22 10° NNW 23:17:57 65° W 23:20:01 38° SSW
Cosmos 1553 Rocket 3.9 23:18:08 35° SSW 23:20:49 79° W 23:26:59 10° N
Meteor 1-25 Rocket 4.4 23:18:37 34° SW 23:20:58 65° WNW 23:26:33 10° N
Cosmos 2297 4.1 23:16:15 10° NW 23:21:36 45° WSW 23:23:14 36° SSW
Cosmos 540 Rocket 4.1 23:17:10 10° NW 23:21:56 40° WSW 23:23:07 35° SW
Cosmos 2219 Rocket 4.4 23:18:10 10° W 23:22:23 21° NW 23:26:36 10° N
S3M 4.0 23:22:03 34° S 23:25:03 89° E 23:31:30 10° N
Cosmos 2278 Rocket 4.1 23:24:16 10° WNW 23:27:12 14° W 23:28:27 14° WSW
Cosmos 2333 Rocket 4.5 23:25:19 10° W 23:29:25 20° NW 23:33:31 10° N
DELTA 2 DEB (DPAF) 4.4 23:28:59 44° SSW 23:30:01 55° W 23:34:26 10° NNW
Cosmos 1943 Rocket 2.3 23:24:43 10° NNW 23:30:14 70° ENE 23:33:54 22° SE
Cosmos 1486 Rocket 4.0 23:28:14 38° SSW 23:30:20 86° WNW 23:35:40 10° NNE
ATLAS 5 CENTAUR R/B 2.3 23:25:21 10° NW 23:31:05 83° SW 23:35:45 20° SE
SL-16 R/B 3.5 23:28:02 11° SE 23:33:40 44° ENE 23:39:28 10° N
Okean 1 3.9 23:30:45 10° NNW 23:34:33 40° W 23:35:07 38° WSW
Cosmos 1674 Rocket 3.6 23:30:14 10° N 23:34:44 78° E 23:36:16 41° SSE
SeaSat 1 3.9 23:30:24 10° NNE 23:34:47 33° NW 23:38:30 13° WSW
Cosmos 1709 Rocket 4.1 23:30:43 10° N 23:36:56 72° E 23:40:29 27° SSE
Gbstr 26 Del rocket 2.5 23:33:33 10° WNW 23:37:18 80° SSW 23:41:23 10° ESE
Meteor 2-21 4.4 23:32:08 10° N 23:38:14 88° E 23:41:21 31° S
Cosmos 1733 Rocket 3.0 23:38:02 47° S 23:39:18 89° W 23:43:44 10° N
USA 215 4.1 23:33:46 10° E 23:40:04 53° NNE 23:46:24 10° WNW
Cosmos 1503 Rocket 4.1 23:39:40 38° S 23:41:42 69° ESE 23:47:00 10° NNE
Meteor 2-21 Rocket 4.5 23:36:18 10° N 23:42:24 77° E 23:45:51 27° SSE
Resurs 1-4 Rocket 3.6 23:38:11 10° NE 23:42:42 27° E 23:45:39 17° SE
BREEZE-M DEB (TANK) 3.5 23:35:25 10° W 23:44:11 61° SSW 23:47:33 10° ESE
Falcon 9 debris 4.4 23:46:33 29° ESE 23:46:33 29° ESE 23:48:56 10° ENE
Cosmos 1536 3.7 23:47:26 31° SE 23:48:42 42° E 23:52:31 10° NNE
Unknown 4.2 23:51:38 32° ESE 23:51:38 32° ESE 23:54:13 10° ENE
Cosmos 1378 Rocket 3.5 23:46:52 10° N 23:51:12 80° E 23:52:47 38° SSE
Cosmos 1745 Rocket 4.3 23:45:31 10° NNW 23:51:36 52° W 23:54:26 30° SSW
Lacrosse 5 rocket 2.9 23:47:55 10° WNW 23:50:38 23° WSW 23:50:38 23° WSW
Cosmos 968 Rocket 3.4 23:51:12 37° S 23:53:17 78° ESE 23:58:27 10° NNE
Unknown 4.1 23:54:33 30° ESE 23:54:33 30° ESE 23:56:30 10° ENE
